Theta_e
293 293 293 293 292 293 293 293 293 294 294 293 293 293 293 294 294 296 296 295 294 295 297 296 296 297 296 296 298 298 301 301 303 305 306 305 306 306 307 308 308 309 310 310 307 309 311 300 307 309 303 301 300 297
293 293 293 292 292 293 293 292 293 293 293 292 292 292 293 294 294 295 296 294 293 294 297 295 295 295 295 295 296 298 300 300 301 302 303 305 305 307 306 310 306 310 304 307 305 304 299 297 297 296 296 296 296 295
292 292 292 292 292 293 293 293 293 292 291 291 292 293 294 295 295 295 296 294 292 294 295 297 297 295 294 295 295 297 298 300 300 300 301 303 305 306 310 307 305 301 299 305 305 299 297 296 295 293 293 292 292 291
292 291 291 292 293 292 293 293 291 290 291 292 293 293 293 295 295 296 296 294 294 295 297 298 294 296 294 295 295 295 296 296 297 298 300 303 305 305 305 302 302 298 298 299 301 299 298 293 292 291 291 290 288 288
291 290 290 291 293 292 293 292 291 290 292 293 293 292 293 295 296 296 296 295 295 296 298 298 297 295 296 296 296 296 296 297 298 300 301 304 303 305 301 300 298 295 296 300 301 296 295 292 290 289 288 287 287 287
291 289 289 291 292 292 292 291 292 291 292 292 292 294 295 295 296 296 295 295 295 294 298 299 297 297 297 297 297 297 297 298 299 300 302 303 303 304 306 301 294 294 294 294 296 292 291 289 288 287 286 285 284 284
290 290 291 291 292 292 291 290 291 292 292 292 293 295 296 298 297 297 298 298 296 295 297 297 299 298 298 298 298 299 298 300 300 301 302 303 302 302 301 300 293 293 292 293 293 292 291 289 288 286 285 283 283 282
290 290 291 291 291 291 290 290 292 292 292 293 295 296 298 298 297 296 297 296 295 295 295 297 299 299 299 301 302 300 300 300 301 301 302 303 300 299 296 292 290 290 291 290 290 290 289 288 286 286 285 284 284 283
291 291 291 291 291 291 290 291 291 291 292 294 295 298 297 296 295 297 295 294 294 297 298 296 299 301 299 300 302 301 301 302 302 302 302 301 300 298 293 291 289 288 289 289 288 288 287 287 286 286 285 285 284 283
290 291 291 291 291 291 290 291 291 292 294 295 297 296 295 295 296 294 295 296 296 297 297 298 298 301 301 300 301 301 301 302 301 303 301 302 295 289 288 287 287 287 287 289 289 288 287 286 285 284 283 282 282 280
290 291 291 291 291 290 289 290 292 294 294 295 294 296 296 296 295 295 298 298 297 298 298 298 299 301 301 302 302 300 303 302 303 305 304 303 298 290 287 286 285 285 285 286 286 285 285 285 284 282 281 280 279 278
290 291 291 291 291 291 291 292 293 294 296 295 297 296 296 297 299 300 299 298 298 299 299 298 297 299 300 299 302 300 301 303 306 302 304 305 293 288 286 285 284 284 283 283 283 283 282 282 281 280 279 277 275 273
291 291 291 291 291 291 292 293 293 295 297 296 297 296 299 299 301 300 299 299 300 299 299 298 298 300 300 300 302 304 306 306 301 305 305 297 289 287 285 284 283 282 281 281 280 280 279 278 277 276 274 273 273 271
291 291 291 291 291 292 293 293 294 297 297 297 300 300 299 300 300 301 301 303 301 300 299 298 300 301 301 300 304 305 303 302 303 304 305 293 288 286 284 283 282 280 279 278 277 276 275 274 273 272 272 272 272 271
291 292 292 292 292 292 293 294 296 296 293 300 299 301 298 299 296 297 296 297 296 299 301 301 301 301 302 303 301 301 302 302 302 305 296 290 286 284 282 280 278 276 276 276 275 274 273 273 273 272 271 272 271 270
291 291 292 292 293 294 295 295 295 293 292 293 293 296 293 297 297 297 297 296 297 299 301 302 301 302 303 302 301 302 303 304 302 293 289 286 282 281 280 278 277 276 276 276 275 275 274 274 274 273 272 271 271 271
293 293 296 297 296 295 296 293 291 291 293 291 292 289 293 297 300 296 296 296 294 300 304 302 302 303 297 301 301 298 302 296 288 287 286 284 281 279 277 276 275 276 276 276 275 275 274 273 273 275 276 274 274 272
292 295 297 297 297 292 291 289 290 290 290 290 293 291 290 290 294 294 292 293 296 299 298 300 298 299 301 302 301 293 287 284 286 285 283 281 279 277 277 277 277 277 276 276 276 275 275 276 278 278 276 275 274 274
292 292 295 296 295 291 291 289 290 290 289 289 288 288 289 289 288 289 290 290 290 291 294 294 297 300 300 293 291 288 285 285 284 282 281 279 278 278 278 277 277 277 277 277 278 279 278 277 277 277 276 276 276 275
292 292 293 293 294 291 291 289 289 290 291 290 289 290 289 289 288 289 290 290 291 291 293 295 295 291 290 287 285 286 285 284 283 282 281 280 278 278 279 279 280 279 279 279 278 277 277 276 275 275 274 274 275 274
293 291 290 290 290 290 291 290 290 290 289 289 288 289 289 288 289 290 290 287 291 290 292 287 287 284 281 281 283 283 283 283 285 284 283 282 280 281 280 280 279 280 280 279 279 277 276 277 275 274 274 273 272 272
292 290 291 290 291 290 290 289 290 289 290 290 290 289 291 291 291 289 286 290 289 286 285 286 284 283 282 283 283 283 282 282 282 281 281 280 282 281 281 280 280 280 279 279 278 277 276 275 273 272 272 272 271 271
292 291 291 290 290 290 290 290 291 290 291 290 289 289 289 289 287 284 289 286 285 282 282 283 282 282 282 281 281 281 281 282 282 282 281 281 281 280 280 279 279 279 278 277 276 275 275 272 271 271 271 271 271 271
290 289 290 291 291 290 291 291 291 290 290 290 290 289 287 288 285 287 290 287 284 282 282 282 282 282 282 281 283 281 281 282 281 281 280 280 279 278 278 277 276 276 276 275 274 273 272 272 270 271 270 270 270 270
291 288 289 290 289 290 290 290 290 290 290 289 288 288 287 286 288 288 289 286 283 283 283 282 283 284 284 284 281 279 279 280 281 280 278 279 277 276 275 274 274 273 272 274 273 273 272 270 269 270 270 269 269 269
288 285 289 290 290 291 291 290 290 289 288 288 288 287 287 288 288 292 287 284 284 283 283 283 284 284 283 282 281 280 278 279 279 279 276 276 277 277 276 276 275 273 271 272 272 272 271 269 269 268 269 268 267 266
288 286 284 281 285 287 288 287 286 288 288 289 288 286 288 291 292 285 280 279 282 281 282 282 282 283 281 279 277 276 276 276 277 276 274 273 272 273 275 275 274 273 270 270 269 269 269 268 268 267 267 267 267 266
282 282 286 280 281 281 282 283 285 285 284 283 286 287 289 288 286 279 278 276 278 278 277 277 280 280 278 276 274 273 272 273 273 272 271 271 271 271 271 271 271 270 269 267 267 267 267 267 267 267 266 266 265 265
280 278 280 276 277 278 278 279 280 279 277 280 283 281 279 276 274 275 275 275 276 277 276 275 272 272 271 271 272 272 272 273 273 273 274 274 272 269 268 268 268 267 267 266 266 266 266 265 265 265 265 264 264 263
278 276 277 275 276 278 276 275 276 275 275 275 276 276 275 274 272 272 274 275 277 279 277 275 273 274 273 273 270 269 270 271 272 274 275 274 273 269 268 267 267 266 266 265 265 265 265 265 264 265 264 264 264 264
276 277 277 277 277 276 275 273 273 273 274 275 274 277 276 275 273 271 272 272 272 272 273 273 273 273 273 273 273 272 272 271 271 272 272 271 270 268 267 267 266 266 265 265 265 264 264 264 265 264 264 263 262 261
276 276 276 277 276 275 274 277 277 277 277 278 276 274 274 277 277 274 269 271 273 274 273 274 273 271 271 272 272 272 272 271 270 269 269 269 268 267 266 266 265 265 264 264 264 264 263 263 263 263 262 262 261 260
274 275 275 277 276 277 275 276 277 277 277 278 276 274 273 276 277 272 268 270 272 273 272 271 272 271 271 271 271 270 270 269 268 267 267 266 266 266 265 265 265 265 264 264 263 263 262 262 262 261 261 260 259 258
Wind_Speed
19 16 16 16 16 16 16 15 13 17 14 12 11 11 10 9 9 15 5 15 8 2 8 8 10 9 7 5 6 10 6 8 7 7 5 3 3 4 3 4 4 3 3 2 2 3 2 19 5 6 6 6 7 10
17 16 16 16 17 15 17 16 14 14 14 13 12 12 11 10 11 14 4 9 17 2 6 6 13 18 16 13 7 5 5 4 3 4 5 4 2 2 4 2 6 2 5 4 5 3 6 8 10 8 10 9 9 8
17 16 17 16 16 17 15 15 15 13 13 13 13 11 10 11 12 16 6 9 8 2 6 10 2 2 6 14 13 4 1 4 3 6 3 3 3 4 3 4 2 3 10 2 4 7 9 10 10 12 12 11 10 10
19 16 16 16 16 14 15 17 15 13 14 12 12 11 11 12 13 16 8 12 5 3 3 0 1 5 4 7 14 18 12 9 8 6 3 3 2 1 3 3 4 4 7 5 5 9 5 11 11 9 11 10 11 11
17 16 16 16 15 15 17 14 14 16 13 11 11 12 12 11 13 15 12 13 11 5 3 5 12 1 1 7 11 10 9 6 3 3 2 2 1 2 2 1 4 5 4 4 3 3 7 7 9 9 10 10 10 10
20 19 19 19 15 17 16 14 14 16 12 12 12 13 12 13 14 12 1 15 16 7 3 3 3 1 1 3 7 7 6 4 2 2 3 3 3 2 0 2 3 5 6 8 4 11 11 9 9 11 10 10 11 11
20 19 19 20 18 18 15 14 15 13 12 12 12 12 11 8 29 7 2 1 21 12 2 3 2 2 0 2 3 4 4 2 3 2 2 3 2 2 2 2 5 6 8 9 9 9 9 6 5 7 9 10 12 14
20 21 20 21 20 17 16 16 13 12 12 11 11 10 7 22 14 5 1 9 21 4 2 2 3 2 3 1 2 2 2 3 4 2 2 2 2 1 2 5 5 4 7 9 10 10 9 8 7 7 8 9 10 11
19 20 21 21 22 18 17 15 14 12 12 11 10 7 17 8 4 7 15 18 11 2 2 2 2 1 1 1 1 3 2 3 1 2 2 1 0 2 4 6 5 5 3 6 7 7 7 7 7 7 8 9 11 11
18 20 24 23 21 19 19 16 14 13 13 12 12 3 2 6 24 25 5 2 1 2 2 3 3 2 3 2 2 1 2 2 2 3 3 1 3 5 5 5 4 4 3 6 6 6 6 7 7 8 9 10 11 11
18 22 21 20 19 19 19 17 14 13 12 7 3 2 13 33 6 2 3 3 4 3 4 4 7 3 3 3 3 3 1 2 2 3 2 2 3 4 6 5 5 5 7 8 9 7 7 8 8 9 9 11 12 13
21 21 20 19 19 19 19 17 14 14 7 11 11 12 7 2 2 3 5 3 5 4 5 4 5 6 2 1 2 3 2 2 2 2 2 2 3 9 7 7 6 6 8 9 10 11 11 12 12 12 12 13 12 11
21 20 20 21 21 21 20 18 20 15 23 7 3 3 3 3 5 7 8 4 4 4 5 5 4 5 2 3 2 2 4 1 1 2 1 3 8 8 8 7 7 8 10 12 13 14 15 15 14 14 14 11 11 11
21 21 21 22 22 22 21 22 23 26 8 2 4 6 5 4 5 5 5 3 2 3 7 7 4 3 2 4 2 3 1 2 2 3 1 5 10 9 7 7 9 9 11 12 13 13 14 14 13 11 11 9 9 9
21 22 22 23 24 26 24 24 31 16 3 3 3 5 7 1 1 2 3 4 2 6 7 5 2 2 2 2 1 1 3 3 3 1 3 8 11 10 9 9 10 9 11 12 12 12 12 10 10 10 9 8 9 9
25 22 32 32 30 29 25 25 17 4 3 1 1 3 2 4 3 3 3 4 1 5 4 2 3 3 3 2 3 5 2 4 2 3 7 10 10 9 10 10 12 13 13 13 12 11 10 9 9 9 7 6 6 5
20 7 23 28 33 30 30 13 4 3 3 3 2 0 1 1 4 3 2 4 1 4 2 2 4 2 2 2 3 3 2 2 5 7 7 10 11 11 13 14 14 14 13 12 12 10 9 8 8 7 6 5 4 3
8 7 23 35 38 30 8 5 3 3 3 2 3 3 1 2 4 3 2 2 2 2 2 1 2 3 3 2 2 3 3 4 6 7 7 9 14 15 15 15 14 14 13 12 11 10 8 6 4 3 2 1 1 1
23 19 32 40 29 10 3 3 1 4 3 3 4 3 2 4 3 3 2 3 4 3 4 2 2 2 1 1 2 5 8 6 8 7 7 12 14 14 15 14 13 13 11 9 7 5 4 3 3 2 2 2 4 3
27 24 25 23 15 5 4 3 3 4 3 4 3 4 3 3 2 3 3 2 2 2 1 2 0 1 1 2 2 7 8 9 10 10 8 8 13 14 14 13 11 11 9 7 5 4 4 2 1 1 2 3 4 2
18 13 11 10 5 7 4 3 3 2 4 3 5 3 3 3 2 2 2 1 1 1 2 1 2 3 2 5 11 15 15 15 8 7 10 9 13 12 12 10 10 7 5 5 4 3 3 3 2 2 3 2 1 2
7 7 5 6 4 4 4 4 5 4 3 4 4 3 3 3 3 2 1 1 2 2 1 2 4 6 6 8 13 14 16 15 13 16 15 17 9 10 10 10 9 7 6 5 5 5 4 3 2 2 2 2 3 3
7 5 5 5 5 4 4 1 3 2 4 4 3 3 2 2 2 2 2 1 2 1 3 7 9 9 13 14 15 15 14 14 14 14 15 12 11 10 10 8 6 6 6 5 5 4 4 4 2 2 2 2 3 4
5 4 3 3 3 4 3 2 3 3 4 2 3 4 3 2 3 2 2 3 3 7 6 11 14 10 13 14 8 11 10 13 15 13 12 13 11 8 7 7 6 4 3 5 5 4 3 3 3 4 4 4 5 5
4 5 3 4 2 4 4 4 3 3 3 3 4 3 4 3 3 4 3 4 7 7 8 12 12 10 9 8 10 10 10 13 14 12 9 9 11 10 7 6 5 4 4 4 3 3 3 3 4 5 5 5 6 7
5 3 2 2 3 2 4 4 4 4 4 4 3 4 3 3 4 3 2 5 6 8 9 10 9 8 8 12 8 12 10 10 13 12 9 9 8 8 8 7 6 4 4 2 3 3 3 3 2 2 3 4 6 6
4 2 3 3 1 4 3 3 2 2 3 4 5 5 4 4 4 2 2 3 4 10 13 13 14 13 12 14 13 12 11 9 8 9 11 8 6 5 4 4 4 3 5 4 2 1 2 2 1 1 2 3 5 5
3 2 3 2 4 3 3 2 2 2 2 1 4 5 4 0 2 2 2 2 7 14 13 11 10 13 16 16 16 16 14 14 14 14 13 9 6 5 5 5 6 6 4 3 2 2 1 1 1 3 4 5 6 6
3 2 2 4 3 4 3 2 2 2 2 1 2 2 2 2 3 2 2 5 10 14 15 14 13 15 17 16 13 12 14 13 11 8 6 4 5 3 6 6 5 4 3 2 2 1 0 0 2 3 4 6 7 7
2 2 3 3 3 2 2 2 2 2 3 3 2 3 3 2 5 4 3 7 10 11 12 15 17 15 16 15 14 10 11 7 5 3 3 3 4 9 10 6 4 3 3 2 2 1 1 2 4 5 5 6 7 8
1 2 3 3 3 3 3 3 3 2 2 3 3 3 4 3 3 7 6 4 8 12 16 15 12 12 14 14 13 12 7 6 5 5 5 7 10 11 8 6 6 5 3 2 1 0 2 3 4 5 6 7 8 9
2 2 3 3 3 3 1 1 2 2 2 2 2 2 2 2 3 2 3 3 8 10 8 11 14 11 11 12 11 9 6 10 10 11 11 11 11 10 9 7 5 3 2 1 1 2 3 4 5 6 8 9 10 11
3 2 2 4 4 4 3 2 2 3 2 2 2 1 2 2 3 2 2 4 2 8 12 12 15 18 16 13 12 14 15 15 14 12 12 11 11 9 7 5 4 3 2 2 3 4 5 6 6 7 8 10 11 12
Wind_Direction
190 198 204 197 198 195 205 209 211 200 196 204 202 206 212 215 198 195 192 209 194 224 280 252 270 282 311 323 326 330 317 16 0 17 5 11 10 31 260 48 336 3 313 151 180 245 154 357 0 29 336 44 32 49
197 197 193 196 204 207 204 196 195 200 207 206 210 212 217 219 203 196 174 211 217 216 300 292 271 269 269 271 282 313 323 338 2 338 11 309 349 341 336 61 32 70 21 345 28 51 55 38 53 42 42 53 39 58
190 195 198 205 204 207 219 201 191 203 217 217 214 216 216 217 199 196 178 172 183 278 268 252 286 299 255 231 225 269 278 331 26 15 334 293 315 350 334 58 321 63 14 339 201 69 62 43 53 48 47 51 49 53
188 195 202 202 203 209 201 194 205 209 204 209 213 214 217 208 194 192 186 192 176 268 285 221 286 302 250 203 212 223 266 303 306 317 311 297 306 349 37 61 53 359 304 340 89 132 103 55 41 43 51 59 61 56
192 200 208 207 202 204 195 201 214 208 211 216 222 229 215 215 207 196 207 206 211 269 310 300 309 129 262 216 218 217 228 259 293 293 273 299 295 320 92 128 58 1 358 340 40 357 71 56 46 49 59 54 54 72
194 204 210 205 211 190 195 208 210 207 218 228 225 217 227 228 189 148 225 229 211 203 277 292 5 222 62 184 183 181 191 208 244 269 276 285 71 342 329 76 69 14 30 344 82 77 92 88 62 55 64 59 59 66
199 207 207 204 203 193 202 203 200 211 222 223 216 229 237 231 166 171 219 58 179 173 233 286 272 125 213 155 153 164 175 211 249 260 248 280 55 9 19 98 84 32 50 40 118 125 83 42 77 79 80 80 79 76
209 206 207 202 200 201 203 196 205 213 217 216 220 223 225 177 161 172 47 145 153 141 215 267 275 253 190 179 172 177 186 213 222 282 273 280 107 81 90 104 83 49 81 65 63 71 92 113 99 84 91 95 84 76
205 200 205 206 199 199 202 203 204 214 210 208 210 231 121 143 134 144 144 149 166 236 222 220 257 28 96 264 161 168 242 228 167 239 220 254 196 61 96 115 84 58 70 115 110 96 94 92 90 88 89 88 88 85
207 207 199 196 198 200 204 210 206 204 202 203 167 161 134 160 138 129 136 146 172 221 238 242 219 233 192 207 147 235 207 262 252 174 139 226 89 106 102 91 81 66 53 173 142 120 115 102 95 83 78 77 82 83
208 192 192 198 202 207 207 210 208 193 196 187 143 96 122 131 117 152 139 188 177 231 204 229 212 205 184 206 171 210 253 194 255 121 264 167 143 144 138 109 90 80 77 78 88 91 85 106 109 103 91 86 84 83
199 195 201 205 208 206 206 208 205 193 191 169 124 118 142 145 143 172 171 172 215 236 172 197 204 216 140 224 209 178 251 196 271 141 243 210 105 135 138 122 106 97 96 92 92 95 97 99 104 105 101 94 87 86
201 208 211 212 210 208 208 214 202 203 145 143 105 122 182 154 194 192 183 198 210 188 180 166 161 165 150 201 207 226 235 210 133 219 267 62 136 139 133 128 118 110 108 103 102 102 102 100 100 106 102 99 100 91
212 212 210 211 216 216 214 205 195 167 155 159 161 143 205 174 224 194 197 171 120 153 162 163 139 154 143 174 253 240 55 247 238 240 136 143 149 141 132 127 126 114 110 110 107 106 102 98 95 96 98 105 104 95
216 213 217 221 221 218 209 197 180 147 117 176 166 194 195 170 91 109 103 122 136 148 154 144 110 178 150 205 221 132 200 233 238 308 107 138 145 139 135 131 128 125 121 113 118 116 113 115 113 103 100 103 110 111
220 241 237 232 220 209 195 180 159 116 82 106 167 157 134 150 160 166 165 143 192 140 160 205 154 185 185 199 184 208 219 230 120 106 129 136 138 135 134 134 132 131 131 131 129 129 131 128 121 121 126 130 133 136
180 195 192 195 190 181 174 137 112 79 116 131 141 209 273 100 144 126 162 150 122 167 183 175 185 158 106 196 220 211 249 62 122 128 135 136 145 140 134 132 136 137 138 138 136 136 131 130 134 144 134 149 149 153
110 116 173 172 164 136 114 65 94 98 106 126 177 156 127 44 110 117 142 127 167 151 145 205 134 190 209 220 192 149 123 120 120 126 126 129 128 133 141 140 145 149 144 141 137 135 137 138 124 92 88 149 200 226
118 105 128 142 137 103 93 77 294 97 90 107 110 130 105 93 75 93 112 95 90 84 123 176 200 209 204 170 123 137 142 144 136 122 116 123 133 138 141 143 142 138 134 137 145 139 122 91 64 45 5 317 295 296
111 102 110 118 128 90 109 112 122 113 141 130 136 122 95 90 103 94 93 78 90 96 174 229 251 73 54 92 113 144 140 135 135 132 131 135 141 145 148 148 143 140 136 128 124 133 135 129 109 352 332 318 301 301
104 90 81 95 87 77 89 118 81 86 119 102 126 134 106 123 112 115 103 68 111 182 174 151 123 84 88 125 134 136 139 148 149 150 147 144 151 146 146 144 144 148 156 164 178 176 205 247 232 255 274 271 260 282
101 89 91 55 89 94 88 47 103 112 104 131 137 111 118 139 135 117 121 153 154 116 139 143 133 133 130 133 134 135 132 127 125 126 125 135 145 151 155 160 169 175 180 189 202 208 212 210 219 236 264 263 270 282
103 55 59 58 72 59 100 152 93 98 121 136 120 102 122 142 118 164 163 103 108 124 147 131 130 131 125 125 124 128 136 136 138 135 142 140 138 139 146 154 162 176 185 188 188 193 200 195 209 247 270 270 279 284
80 57 59 78 86 105 137 108 110 111 115 138 134 129 156 136 158 210 204 170 133 148 148 143 139 129 125 134 134 131 136 140 132 133 142 143 138 134 141 140 145 150 162 166 178 185 191 219 251 270 274 274 281 292
70 24 22 79 89 122 119 128 112 110 124 152 141 149 159 171 186 198 220 164 167 165 156 158 156 157 150 139 132 128 141 150 147 138 139 147 136 135 141 146 141 142 155 167 193 219 244 256 267 268 273 278 287 293
79 21 18 99 124 134 150 137 159 144 133 141 146 121 169 176 189 213 165 163 167 165 166 166 159 149 148 150 143 146 141 142 141 135 137 149 159 172 168 170 176 180 187 187 197 240 250 251 253 262 280 290 297 299
111 102 74 33 25 109 108 82 98 131 143 156 160 168 172 196 207 121 107 156 160 160 162 161 161 155 144 137 127 123 124 124 128 132 138 136 135 125 152 179 191 149 181 193 198 218 234 216 220 273 300 304 305 302
80 36 145 66 78 28 110 98 118 125 132 130 161 178 188 239 118 62 36 48 132 134 124 111 120 133 134 132 132 128 120 125 123 119 115 109 116 129 133 134 138 149 156 167 169 176 160 189 265 292 297 300 301 301
71 49 98 67 68 58 46 55 97 82 15 202 133 125 122 58 14 351 34 140 142 133 120 115 107 118 116 116 116 122 132 138 142 144 151 147 161 145 143 138 141 148 151 145 155 148 267 217 294 286 297 297 297 303
84 6 96 73 66 68 48 5 79 72 42 52 90 117 107 74 21 14 128 145 150 138 133 135 138 139 137 135 131 128 137 140 138 148 172 169 167 163 163 156 160 165 153 147 172 213 236 290 293 314 314 310 308 307
47 107 87 76 91 97 91 92 109 107 67 62 37 85 98 107 87 45 63 98 123 130 132 133 132 143 142 144 148 147 149 165 157 153 146 145 145 150 155 157 151 142 131 119 106 28 300 302 308 314 316 316 315 316
47 63 123 117 125 134 161 157 84 84 92 98 88 114 146 146 90 79 25 108 136 138 137 144 141 141 141 146 147 148 152 158 144 136 137 141 143 145 144 142 138 133 124 88 17 332 326 327 326 323 320 320 320 321
118 109 92 116 132 166 151 144 86 116 115 119 100 70 52 35 114 99 67 148 127 153 140 134 137 138 138 139 139 136 137 138 140 142 141 140 138 136 132 127 120 106 73 17 339 334 334 335 332 327 326 325 325 325